Location: Gollag?dem
(16.8053°N, 80.8024°E)
Time: 13:11:34
(UTC+00:00)

Intelsat 5-1 Rocket - Pass Details

Date: 13 August 2020
Orbit: 312 x 7605 km, 23.9° (Epoch: 24 September)

Event Time Altitude Azimuth Distance (km) Brightness Sun altitude
Exits shadow 21:54:43 67° 198° (SSW) 1,672 3.9 -33.1°
Maximum altitude 21:55:50 73° 154° (SSE) 1,770 4.1 -32.8°
Drops below altitude 10° 22:17:10 10° 73° (ENE) 7,882 8.6 -28.4°
Sets 22:27:00 0° 72° (ENE) 10,239 9.5 -26.3°
